Regional Weather Roundup
Issued by NWS

Home | Current Version | Previous Version | Graphics & Text | Print | Product List | Glossary On
Versions: 1 2 3 4 5 6 7 8 9 10 11 12 13 14 15 16 17 18 19 20 21 22 23 24 25 26 27
000
ASUS45 KBOI 201110
RWRID

IDAHO REGIONAL WEATHER ROUNDUP
NATIONAL WEATHER SERVICE BOISE ID
500 AM MDT FRI APR 20 2018

NOTE: "FAIR" INDICATES FEW OR NO CLOUDS BELOW 12000 FEET
WITH NO SIGNIFICANT WEATHER AND/OR OBSTRUCTIONS TO VISIBILITY

IDZ012-014-201200-
SOUTHWEST IDAHO


CITY           SKY/WX    TMP DP  RH WIND       PRES   REMARKS
BOISE          CLEAR     44  29  55 NW7       30.05R
CALDWELL       CLEAR     45  31  58 W21       30.07
MOUNTAIN HOME  CLEAR     44  30  57 NW24G32   30.00R
$$

IDZ016-017-201200-
SOUTHCENTRAL IDAHO


CITY           SKY/WX    TMP DP  RH WIND       PRES   REMARKS
BURLEY         CLEAR     41  29  62 W12G22    29.97R
JEROME         CLEAR     38  29  70 SW8       29.99R WCI  32
TWIN FALLS     CLEAR     39  29  67 SW14      30.01R WCI  31
$$

IDZ019>023-201200-
SOUTHEAST IDAHO


CITY           SKY/WX    TMP DP  RH WIND       PRES   REMARKS
IDAHO FALLS    CLEAR     41  27  57 N14       29.95R
POCATELLO      CLEAR     38  26  62 S3        29.95R
REXBURG        PTCLDY    37  26  64 CALM      29.95R
$$

IDZ006-010-011-018-031-032-201200-
CENTRAL IDAHO MOUNTAINS


CITY           SKY/WX    TMP DP  RH WIND       PRES   REMARKS
MCCALL         CLEAR     39  24  55 N9        30.12R WCI  33
HAILEY         CLEAR     43  25  49 N8        30.01S
STANLEY          N/A     24  21  88 CALM      30.11S
SALMON         CLEAR     37  25  61 S5        30.11R WCI  33
CHALLIS        CLEAR     42  20  41 CALM      30.08R
$$

IDZ002-004-006-007-026-201200-
NORTHERN IDAHO


CITY           SKY/WX    TMP DP  RH WIND       PRES   REMARKS
LEWISTON       CLEAR     44  33  65 S3        30.20R
LOWELL           N/A     37  36  96 N3        30.24R
COEUR D`ALENE  CLEAR     39  33  79 SE8       30.17S WCI  33
MULLAN PASS    CLEAR     32  23  69 NW6       30.15R WCI  26
$$




USA.gov is the U.S. government's official web portal to all federal, state and local government web resources and services.